Location: Brachbach
(49.1847°N, 9.7240°E)
Time: 16:36:10
(UTC+00:00)

Meteor 2-5 Rocket - Pass Details

Date: 10 August 2024
Orbit: 833 x 910 km, 81.2° (Epoch: 07 September)

Event Time Altitude Azimuth Distance (km) Brightness Sun altitude
Rises 00:38:14 0° 358° (N) 3,448 8.0 -23.4°
Reaches altitude 10° 00:41:37 10° 18° (NNE) 2,523 7.3 -23.2°
Maximum altitude 00:45:14 17° 58° (ENE) 2,084 6.3 -23.0°
Drops below altitude 10° 00:48:53 10° 97° (E) 2,547 6.3 -22.8°
Sets 00:52:18 0° 117° (ESE) 3,497 6.9 -22.6°
